ASY223 NSFI-NFFN

Flight info

Callsign ASY223
Flight time N/A
Altitude 10000
Route NSFI DCT AMITI DCT TORIG DCT DAKAM DCT IDNIP DCT GOKIT DCT GODAP DCT GILUM DCT NFFN
Aircraft C30J/M-C130J/LB1

Departure

Time 2026-05-04 05:52
Airport Fagali'i Airport (NSFI)

Arrival

Time N/A
Airport Nadi International Airport (NFFN)
Time Latitude Longitude Altitude Speed Heading
2026-05-04 05:51 -13.84982 -171.73800 107 ft 83 kts 110°
2026-05-04 05:51 -13.85315 -171.72891 382 ft 179 kts 109°
2026-05-04 05:52 -13.85722 -171.71617 623 ft 185 kts 96°
2026-05-04 05:52 -13.85007 -171.70865 1187 ft 168 kts
2026-05-04 05:52 -13.83782 -171.70871 1365 ft 181 kts 339°
2026-05-04 05:52 -13.83037 -171.71780 1812 ft 177 kts 293°
2026-05-04 05:53 -13.82663 -171.73020 2108 ft 178 kts 270°
2026-05-04 05:54 -13.85370 -171.80351 4946 ft 134 kts 256°
2026-05-04 05:55 -13.85665 -171.81283 5149 ft 135 kts 256°
2026-05-04 05:55 -13.85997 -171.82164 5428 ft 132 kts 249°
2026-05-04 05:55 -13.86385 -171.83078 5493 ft 148 kts 247°
2026-05-04 05:55 -13.86850 -171.84015 5832 ft 143 kts 247°
2026-05-04 05:56 -13.87236 -171.84956 6117 ft 143 kts 251°
2026-05-04 05:56 -13.87613 -171.85888 6423 ft 140 kts 252°
2026-05-04 05:56 -13.87948 -171.86846 6625 ft 145 kts 250°
2026-05-04 05:56 -13.88374 -171.87804 6852 ft 148 kts 249°
2026-05-04 05:57 -13.88783 -171.88827 6878 ft 169 kts 251°
2026-05-04 05:57 -13.89261 -171.90023 6940 ft 187 kts 251°
2026-05-04 05:57 -13.89750 -171.91302 7159 ft 196 kts 252°
2026-05-04 05:57 -13.90274 -171.92619 7495 ft 197 kts 251°
2026-05-04 05:58 -13.90757 -171.93924 7901 ft 196 kts 252°
2026-05-04 05:58 -13.91281 -171.95210 8161 ft 202 kts 249°
2026-05-04 05:58 -13.91893 -171.96478 8700 ft 186 kts 252°
2026-05-04 05:58 -13.92433 -171.97754 8680 ft 210 kts 250°
2026-05-04 05:59 -13.93083 -171.99161 8841 ft 214 kts 245°
2026-05-04 05:59 -13.93747 -172.00412 9724 ft 182 kts 247°
2026-05-04 05:59 -13.94402 -172.01623 9543 ft 217 kts 246°
2026-05-04 05:59 -13.95134 -172.03089 9456 ft 238 kts 248°
2026-05-04 06:00 -13.95883 -172.04663 9473 ft 251 kts 248°
2026-05-04 06:00 -13.96632 -172.06225 10166 ft 228 kts 248°
2026-05-04 06:00 -13.97351 -172.07686 10448 ft 240 kts 248°
2026-05-04 06:00 -13.98130 -172.09300 10466 ft 263 kts 248°
2026-05-04 06:01 -13.98962 -172.11053 10495 ft 281 kts 248°
2026-05-04 06:01 -13.99826 -172.12889 10513 ft 296 kts 248°
2026-05-04 06:03 -14.06645 -172.27653 10604 ft 344 kts 248°
2026-05-04 06:03 -14.07671 -172.29890 10602 ft 346 kts 248°
2026-05-04 06:05 -14.14852 -172.45836 10611 ft 353 kts 248°
2026-05-04 06:05 -14.16866 -172.50460 10612 ft 354 kts 248°
2026-05-04 06:05 -14.17860 -172.52744 10612 ft 354 kts 248°
2026-05-04 06:06 -14.18867 -172.55061 10612 ft 354 kts 248°
2026-05-04 06:06 -14.19874 -172.57377 10612 ft 354 kts 248°
2026-05-04 06:06 -14.20881 -172.59697 10612 ft 354 kts 248°
2026-05-04 06:06 -14.21891 -172.62019 10612 ft 355 kts 248°
2026-05-04 06:07 -14.22898 -172.64339 10615 ft 354 kts 248°
2026-05-04 06:07 -14.23908 -172.66661 10615 ft 355 kts 248°
2026-05-04 06:07 -14.24915 -172.68980 10615 ft 355 kts 248°
2026-05-04 06:07 -14.25922 -172.71300 10612 ft 355 kts 248°
2026-05-04 06:08 -14.26929 -172.73620 10607 ft 355 kts 248°
2026-05-04 06:08 -14.27938 -172.75942 10607 ft 355 kts 248°
2026-05-04 06:08 -14.28946 -172.78266 10608 ft 355 kts 247°
2026-05-04 06:08 -14.29937 -172.80595 10609 ft 354 kts 248°
2026-05-04 06:09 -14.30907 -172.82929 10609 ft 353 kts 248°
2026-05-04 06:09 -14.31868 -172.85260 10608 ft 353 kts 248°
2026-05-04 06:11 -14.38556 -173.01526 10610 ft 352 kts 248°
2026-05-04 06:11 -14.39511 -173.03851 10611 ft 352 kts 248°
2026-05-04 06:13 -14.46209 -173.20123 10614 ft 351 kts 248°
2026-05-04 06:14 -14.51987 -173.34021 10616 ft 351 kts 248°
2026-05-04 06:14 -14.52949 -173.36334 10616 ft 351 kts 248°
2026-05-04 06:15 -14.53910 -173.38646 10614 ft 351 kts 248°
2026-05-04 06:15 -14.54862 -173.40934 10614 ft 351 kts 248°
2026-05-04 06:15 -14.55823 -173.43246 10614 ft 351 kts 248°
2026-05-04 06:15 -14.56785 -173.45557 10614 ft 351 kts 248°
2026-05-04 06:16 -14.57760 -173.47903 10613 ft 351 kts 248°
2026-05-04 06:16 -14.58723 -173.50217 10613 ft 351 kts 248°
2026-05-04 06:16 -14.59672 -173.52500 10613 ft 351 kts 248°
2026-05-04 06:16 -14.60634 -173.54814 10614 ft 350 kts 248°
2026-05-04 06:17 -14.61600 -173.57126 10614 ft 350 kts 248°
2026-05-04 06:17 -14.62563 -173.59434 10614 ft 350 kts 248°
2026-05-04 06:17 -14.63526 -173.61737 10614 ft 350 kts 248°
2026-05-04 06:17 -14.64490 -173.64047 10614 ft 350 kts 248°
2026-05-04 06:18 -14.65454 -173.66352 10614 ft 350 kts 248°
2026-05-04 06:18 -14.66420 -173.68662 10614 ft 349 kts 248°
2026-05-04 06:18 -14.67384 -173.70965 10614 ft 349 kts 248°
2026-05-04 06:20 -14.74123 -173.87087 10614 ft 349 kts 248°
2026-05-04 06:20 -14.75087 -173.89390 10614 ft 349 kts 248°
2026-05-04 06:21 -14.78943 -173.98570 10615 ft 349 kts 248°
2026-05-04 06:21 -14.79910 -174.00870 10615 ft 349 kts 248°
2026-05-04 06:22 -14.80879 -174.03166 10613 ft 349 kts 248°
2026-05-04 06:22 -14.81857 -174.05497 10613 ft 349 kts 249°